User: anonymous   Login
Location: Albany
(35.0000°S, 118.0000°E)
Time: 08:28:52
(UTC-04:00)
Language:

JAS-1B - Orbit

View from above orbital plane
View from above orbital plane
View from above satellite
View from above satellite

Ground track
Ground track

The orbit data is extracted from the following two-line orbital elements,

1 20480U 90013C   17200.59744620 -.00000025 +00000-0 +24390-4 0  9994
2 20480 099.0599 327.7074 0539720 317.6723 038.3894 12.83415682285833
Epoch (UTC): 19 July 2017 14:20:19
Eccentricity: 0.0539720
inclination: 99.0599°
perigee height: 912 km
apogee height: 1743 km
right ascension of ascending node: 327.7074°
argument of perigee: 317.6723°
revolutions per day: 12.83415682
mean anomaly at epoch: 38.3894°
orbit number at epoch: 28583

The dashed part of the orbit path shows where the satellite is in the earth's shadow,  

DLR